Orbital Elements at Epoch 2459200.5 (2020-Dec-17.0) TDB
Reference: JPL 13 (heliocentric ecliptic J2000)
Element | Value | Uncertainty (1-sigma) | Units |
e | .2730616111539466 | 5.9466e-08 | |
a | 2.34820783679593 | 1.2857e-08 | au |
q | 1.70700242155611 | 1.4035e-07 | au |
i | 7.656876922857479 | 6.5109e-06 | deg |
node | 323.1103869311204 | 4.3663e-05 | deg |
peri | 3.605283468651154 | 4.484e-05 | deg |
M | 84.40752381136365 | 1.1278e-05 | deg |
tp | 2458892.336012029083 (2020-Feb-12.83601203) | 4.0337e-05 | TDB |
period | 1314.326385376024 3.60 | 1.0794e-05 2.955e-08 | d yr |
n | .2739045673932852 | 2.2495e-09 | deg/d |
Q | 2.98941325203575 | 1.6367e-08 | au |
|
| | Orbit Determination Parameters
Additional Information
|